| time (UTC) | temp F | wind direction | speed knots | gust knots | rain 1hr in | rain 24hr in | rain mn in | humidity % | barometer mb |
| 20260505230505 | 56 | 320 | 3.5 | 8.7 | 0.00 | 0.02 | 0.02 | 38 | 1012.3 |
| 20260505230022 | 56 | 315 | 2.6 | 10.4 | 0.00 | 0.02 | 0.02 | 39 | 1012.3 |
| 20260505225510 | 56 | 313 | 3.5 | 10.4 | 0.00 | 0.02 | 0.02 | 39 | 1012.3 |
| 20260505225011 | 56 | 335 | 2.6 | 8.7 | 0.00 | 0.02 | 0.02 | 38 | 1012.2 |
| 20260505224523 | 56 | 329 | 2.6 | 7.8 | 0.00 | 0.02 | 0.02 | 37 | 1012.2 |
| 20260505224010 | 56 | 341 | 2.6 | 7.8 | 0.00 | 0.02 | 0.02 | 37 | 1012.2 |
| 20260505223519 | 57 | 16 | 3.5 | 7.8 | 0.00 | 0.02 | 0.02 | 36 | 1012.2 |
| 20260505223023 | 57 | 338 | 3.5 | 15.6 | 0.00 | 0.02 | 0.02 | 37 | 1012.2 |
| 20260505222513 | 56 | 336 | 4.3 | 15.6 | 0.00 | 0.02 | 0.02 | 36 | 1012.1 |
| 20260505222009 | 56 | 5 | 4.3 | 10.4 | 0.00 | 0.02 | 0.02 | 37 | 1012.1 |
| 20260505221523 | 56 | 307 | 4.3 | 10.4 | 0.00 | 0.02 | 0.02 | 37 | 1012.1 |
| 20260505221013 | 56 | 327 | 4.3 | 8.7 | 0.00 | 0.02 | 0.02 | 37 | 1012.1 |
| 20260505220508 | 57 | 318 | 5.2 | 8.7 | 0.00 | 0.02 | 0.02 | 38 | 1012.1 |
| 20260505220028 | 57 | 326 | 3.5 | 7.8 | 0.00 | 0.02 | 0.02 | 38 | 1012.0 |
| 20260505215509 | 57 | 306 | 3.5 | 7.0 | 0.00 | 0.02 | 0.02 | 39 | 1012.0 |
| 20260505215008 | 57 | 345 | 2.6 | 9.6 | 0.00 | 0.02 | 0.02 | 39 | 1012.1 |
| 20260505214544 | 57 | 319 | 4.3 | 9.6 | 0.00 | 0.02 | 0.02 | 39 | 1012.1 |
| 20260505214012 | 57 | 341 | 3.5 | 9.6 | 0.00 | 0.02 | 0.02 | 38 | 1012.1 |
| 20260505213509 | 57 | 276 | 3.5 | 9.6 | 0.00 | 0.02 | 0.02 | 37 | 1012.1 |
| 20260505213025 | 57 | 334 | 2.6 | 9.6 | 0.00 | 0.02 | 0.02 | 41 | 1012.2 |
| 20260505212515 | 57 | 311 | 2.6 | 9.6 | 0.00 | 0.02 | 0.02 | 40 | 1012.2 |
| 20260505212012 | 56 | 303 | 1.7 | 9.6 | 0.00 | 0.02 | 0.02 | 39 | 1012.3 |
| 20260505211526 | 56 | 315 | 4.3 | 12.2 | 0.00 | 0.02 | 0.02 | 38 | 1012.5 |
| 20260505211006 | 56 | 311 | 5.2 | 12.2 | 0.00 | 0.02 | 0.02 | 39 | 1012.5 |
| 20260505210507 | 57 | 277 | 4.3 | 10.4 | 0.00 | 0.02 | 0.02 | 39 | 1012.5 |
| 20260505210011 | 57 | 314 | 3.5 | 10.4 | 0.00 | 0.02 | 0.02 | 40 | 1012.5 |
| 20260505205506 | 57 | 300 | 2.6 | 8.7 | 0.00 | 0.02 | 0.02 | 41 | 1012.6 |
| 20260505205009 | 57 | 329 | 3.5 | 13.0 | 0.00 | 0.02 | 0.02 | 40 | 1012.6 |
| 20260505204509 | 57 | 332 | 3.5 | 13.0 | 0.00 | 0.02 | 0.02 | 40 | 1012.6 |
| 20260505204007 | 58 | 292 | 2.6 | 11.3 | 0.00 | 0.02 | 0.02 | 40 | 1012.7 |
| 20260505203508 | 58 | 338 | 6.1 | 11.3 | 0.00 | 0.02 | 0.02 | 37 | 1012.7 |
| 20260505203032 | 59 | 340 | 4.3 | 11.3 | 0.00 | 0.02 | 0.02 | 38 | 1012.6 |
| 20260505202506 | 59 | 301 | 2.6 | 8.7 | 0.00 | 0.02 | 0.02 | 37 | 1012.7 |
| 20260505202003 | 60 | 350 | 3.5 | 8.7 | 0.00 | 0.02 | 0.02 | 38 | 1012.7 |
| 20260505201515 | 59 | 355 | 1.7 | 8.7 | 0.00 | 0.02 | 0.02 | 38 | 1012.8 |
| 20260505201007 | 58 | 340 | 1.7 | 7.0 | 0.00 | 0.02 | 0.02 | 42 | 1012.8 |
| 20260505200503 | 59 | 285 | 1.7 | 7.0 | 0.00 | 0.02 | 0.02 | 38 | 1012.8 |
| 20260505200012 | 59 | 246 | 1.7 | 8.7 | 0.00 | 0.02 | 0.02 | 40 | 1012.7 |
| 20260505195508 | 59 | 312 | 2.6 | 9.6 | 0.00 | 0.02 | 0.02 | 42 | 1012.8 |
| 20260505195006 | 59 | 297 | 3.5 | 9.6 | 0.00 | 0.02 | 0.02 | 40 | 1012.8 |
| 20260505194514 | 58 | 306 | 2.6 | 7.8 | 0.00 | 0.02 | 0.02 | 39 | 1012.9 |
| 20260505194006 | 58 | 325 | 2.6 | 8.7 | 0.00 | 0.02 | 0.02 | 38 | 1012.9 |
| 20260505193506 | 58 | 9 | 3.5 | 8.7 | 0.00 | 0.02 | 0.02 | 41 | 1013.1 |
| 20260505193017 | 58 | 25 | 4.3 | 11.3 | 0.00 | 0.02 | 0.02 | 38 | 1013.1 |
| 20260505192506 | 58 | 339 | 3.5 | 11.3 | 0.00 | 0.02 | 0.02 | 40 | 1012.9 |
| 20260505192006 | 57 | 342 | 2.6 | 9.6 | 0.00 | 0.02 | 0.02 | 40 | 1013.0 |
| 20260505191517 | 57 | 315 | 3.5 | 9.6 | 0.00 | 0.02 | 0.02 | 40 | 1013.2 |
| 20260505191010 | 57 | 327 | 1.7 | 10.4 | 0.00 | 0.02 | 0.02 | 41 | 1013.2 |
| 20260505190505 | 57 | 319 | 3.5 | 10.4 | 0.00 | 0.02 | 0.02 | 40 | 1013.3 |
| 20260505190011 | 57 | 320 | 0.9 | 9.6 | 0.00 | 0.02 | 0.02 | 40 | 1013.3 |
| 20260505185506 | 56 | 346 | 2.6 | 9.6 | 0.00 | 0.02 | 0.02 | 41 | 1013.4 |
| 20260505185008 | 57 | 325 | 1.7 | 7.8 | 0.00 | 0.02 | 0.02 | 41 | 1013.4 |
| 20260505184516 | 58 | 344 | 1.7 | 7.8 | 0.00 | 0.02 | 0.02 | 40 | 1013.3 |
| 20260505184006 | 58 | 304 | 2.6 | 7.8 | 0.00 | 0.02 | 0.02 | 44 | 1013.3 |
| 20260505183506 | 57 | 338 | 3.5 | 7.8 | 0.00 | 0.02 | 0.02 | 43 | 1013.3 |
| 20260505183021 | 58 | 334 | 2.6 | 7.0 | 0.00 | 0.02 | 0.02 | 40 | 1013.4 |
| 20260505182512 | 57 | 347 | 2.6 | 11.3 | 0.00 | 0.02 | 0.02 | 41 | 1013.4 |
| 20260505182007 | 58 | 318 | 4.3 | 11.3 | 0.00 | 0.02 | 0.02 | 44 | 1013.6 |
| 20260505181515 | 57 | 331 | 6.1 | 10.4 | 0.00 | 0.02 | 0.02 | 42 | 1013.4 |
| 20260505181011 | 56 | 325 | 3.5 | 8.7 | 0.00 | 0.02 | 0.02 | 44 | 1013.5 |
| 20260505180508 | 57 | 313 | 1.7 | 7.0 | 0.00 | 0.02 | 0.02 | 45 | 1013.5 |
| 20260505180050 | 57 | 355 | 2.6 | 7.0 | 0.00 | 0.02 | 0.02 | 47 | 1013.6 |
| 20260505175509 | 57 | 309 | 2.6 | 6.1 | 0.00 | 0.02 | 0.02 | 49 | 1013.6 |
| 20260505175015 | 55 | 307 | 0.9 | 6.1 | 0.00 | 0.02 | 0.02 | 47 | 1013.5 |
| 20260505174528 | 57 | 329 | 2.6 | 4.3 | 0.00 | 0.02 | 0.02 | 47 | 1013.6 |
| 20260505174006 | 55 | 355 | 0.9 | 8.7 | 0.00 | 0.02 | 0.02 | 47 | 1013.6 |
| 20260505173506 | 55 | 296 | 3.5 | 8.7 | 0.00 | 0.02 | 0.02 | 47 | 1013.8 |
| 20260505173022 | 56 | 241 | 0.9 | 7.0 | 0.00 | 0.02 | 0.02 | 53 | 1013.7 |
| 20260505172507 | 54 | 296 | 1.7 | 7.0 | 0.00 | 0.02 | 0.02 | 48 | 1013.9 |
| 20260505172008 | 55 | 328 | 1.7 | 5.2 | 0.00 | 0.02 | 0.02 | 50 | 1014.0 |
| 20260505171522 | 55 | 351 | 2.6 | 7.8 | 0.00 | 0.02 | 0.02 | 50 | 1013.9 |
| 20260505171007 | 55 | 312 | 2.6 | 7.8 | 0.00 | 0.02 | 0.02 | 53 | 1013.9 |
| 20260505170508 | 54 | 333 | 3.5 | 7.8 | 0.00 | 0.02 | 0.02 | 51 | 1014.0 |
| 20260505170017 | 54 | 325 | 3.5 | 7.0 | 0.00 | 0.02 | 0.02 | 51 | 1014.1 |
| 20260505165509 | 53 | 311 | 0.9 | 7.0 | 0.00 | 0.02 | 0.02 | 53 | 1014.0 |
| 20260505165009 | 52 | 360 | 1.7 | 7.0 | 0.00 | 0.02 | 0.02 | 52 | 1014.1 |
| 20260505164521 | 53 | 343 | 0.9 | 7.0 | 0.00 | 0.02 | 0.02 | 56 | 1014.0 |
| 20260505164009 | 53 | 284 | 1.7 | 7.0 | 0.00 | 0.02 | 0.02 | 57 | 1014.0 |
| 20260505163507 | 53 | 303 | 3.5 | 7.0 | 0.00 | 0.02 | 0.02 | 57 | 1014.1 |
| 20260505163020 | 53 | 355 | 2.6 | 4.3 | 0.00 | 0.02 | 0.02 | 59 | 1014.0 |
| 20260505162506 | 52 | 302 | 1.7 | 3.5 | 0.00 | 0.02 | 0.02 | 60 | 1013.8 |
| 20260505162010 | 51 | 322 | 0.9 | 3.5 | 0.00 | 0.02 | 0.02 | 61 | 1013.7 |
| 20260505161520 | 51 | 305 | 1.7 | 4.3 | 0.00 | 0.02 | 0.02 | 60 | 1013.7 |
| 20260505161007 | 50 | 319 | 1.7 | 4.3 | 0.00 | 0.02 | 0.02 | 61 | 1013.6 |
| 20260505160507 | 50 | 340 | 1.7 | 3.5 | 0.00 | 0.02 | 0.02 | 62 | 1013.6 |
| 20260505153022 | 49 | 309 | 2.6 | 7.0 | 0.00 | 0.02 | 0.02 | 65 | 1013.6 |
| 20260505152508 | 48 | 349 | 2.6 | 7.8 | 0.00 | 0.02 | 0.02 | 66 | 1013.5 |
| 20260505152010 | 48 | 311 | 2.6 | 7.8 | 0.00 | 0.02 | 0.02 | 66 | 1013.5 |
| 20260505151518 | 48 | 5 | 2.6 | 7.0 | 0.00 | 0.02 | 0.02 | 65 | 1013.4 |
| 20260505151009 | 48 | 338 | 2.6 | 7.0 | 0.00 | 0.02 | 0.02 | 64 | 1013.4 |
| 20260505150515 | 49 | 310 | 0.9 | 4.3 | 0.00 | 0.02 | 0.02 | 65 | 1013.2 |
| 20260505140510 | 48 | 317 | 1.7 | 3.5 | 0.00 | 0.02 | 0.02 | 63 | 1013.1 |
| 20260505125013 | 48 | 303 | 0.9 | 2.6 | 0.00 | 0.02 | 0.02 | 74 | 1011.9 |
| 20260505124522 | 48 | 302 | 0.9 | 2.6 | 0.00 | 0.02 | 0.02 | 75 | 1011.8 |
| 20260505124011 | 48 | 302 | 0.0 | 1.7 | 0.00 | 0.02 | 0.02 | 75 | 1011.6 |
| 20260505123512 | 47 | 302 | 0.9 | 1.7 | 0.00 | 0.02 | 0.02 | 77 | 1011.5 |
| 20260505123026 | 47 | 302 | 0.0 | 0.9 | 0.00 | 0.02 | 0.02 | 79 | 1011.6 |
| 20260505122510 | 47 | 302 | 0.0 | 0.0 | 0.00 | 0.02 | 0.02 | 79 | 1011.4 |
| 20260505122010 | 47 | 302 | 0.0 | 0.0 | 0.00 | 0.02 | 0.02 | 80 | 1011.3 |
| 20260505121528 | 46 | 302 | 0.0 | 0.0 | 0.00 | 0.02 | 0.02 | 80 | 1011.2 |
| 20260505121007 | 46 | 302 | 0.0 | 0.0 | 0.00 | 0.02 | 0.02 | 80 | 1011.1 |
| 20260505120504 | 46 | 302 | 0.0 | 0.0 | 0.00 | 0.02 | 0.02 | 82 | 1011.0 |
| 20260505120015 | 46 | 302 | 0.0 | 0.0 | 0.00 | 0.02 | 0.02 | 81 | 1011.0 |
| 20260505115503 | 46 | 302 | 0.0 | 0.0 | 0.00 | 0.02 | 0.02 | 81 | 1010.9 |
| 20260505115007 | 46 | 302 | 0.0 | 0.0 | 0.00 | 0.02 | 0.02 | 82 | 1010.7 |
| 20260505114519 | 46 | 302 | 0.0 | 0.0 | 0.00 | 0.02 | 0.02 | 82 | 1010.5 |
| 20260505114007 | 46 | 302 | 0.0 | 0.0 | 0.00 | 0.02 | 0.02 | 83 | 1010.5 |
| 20260505113506 | 46 | 302 | 0.0 | 0.0 | 0.00 | 0.02 | 0.02 | 83 | 1010.6 |
| 20260505113023 | 46 | 302 | 0.0 | 0.0 | 0.00 | 0.02 | 0.02 | 83 | 1010.4 |
| 20260505112506 | 46 | 302 | 0.0 | 0.0 | 0.00 | 0.02 | 0.02 | 84 | 1010.5 |
| 20260505112006 | 46 | 302 | 0.0 | 0.0 | 0.00 | 0.02 | 0.02 | 83 | 1010.6 |
| 20260505111516 | 46 | 302 | 0.0 | 0.0 | 0.00 | 0.02 | 0.02 | 84 | 1010.6 |
| 20260505111005 | 45 | 302 | 0.0 | 0.0 | 0.00 | 0.02 | 0.02 | 84 | 1010.7 |
| 20260505110505 | 45 | 302 | 0.0 | 0.0 | 0.00 | 0.02 | 0.02 | 84 | 1010.7 |
| 20260505101529 | 47 | 302 | 0.0 | 0.0 | 0.00 | 0.02 | 0.02 | 80 | 1010.9 |
| 20260505101004 | 47 | 302 | 0.0 | 0.0 | 0.00 | 0.02 | 0.02 | 80 | 1010.9 |
| 20260505100508 | 47 | 302 | 0.0 | 0.0 | 0.00 | 0.02 | 0.02 | 80 | 1010.9 |
| 20260505100020 | 47 | 302 | 0.0 | 0.0 | 0.00 | 0.02 | 0.02 | 81 | 1011.0 |
| 20260505095508 | 47 | 302 | 0.0 | 0.0 | 0.00 | 0.02 | 0.02 | 82 | 1010.9 |
| 20260505095002 | 47 | 302 | 0.0 | 0.0 | 0.00 | 0.02 | 0.02 | 83 | 1010.9 |
| 20260505094514 | 47 | 302 | 0.0 | 0.0 | 0.00 | 0.02 | 0.02 | 82 | 1010.9 |
| 20260505094008 | 48 | 302 | 0.0 | 0.0 | 0.00 | 0.02 | 0.02 | 81 | 1010.8 |
| 20260505093504 | 48 | 302 | 0.0 | 0.0 | 0.00 | 0.02 | 0.02 | 81 | 1010.8 |
| 20260505093023 | 48 | 302 | 0.0 | 0.0 | 0.00 | 0.02 | 0.02 | 81 | 1010.6 |
| 20260505092509 | 48 | 302 | 0.0 | 0.9 | 0.00 | 0.02 | 0.02 | 81 | 1010.6 |
| 20260505092009 | 48 | 302 | 0.0 | 1.7 | 0.00 | 0.02 | 0.02 | 82 | 1010.2 |
| 20260505091513 | 47 | 302 | 0.0 | 1.7 | 0.00 | 0.02 | 0.02 | 82 | 1010.0 |
| 20260505091007 | 47 | 302 | 0.0 | 0.0 | 0.00 | 0.02 | 0.02 | 82 | 1010.0 |
| 20260505090507 | 47 | 302 | 0.0 | 0.0 | 0.00 | 0.02 | 0.02 | 82 | 1010.1 |
| 20260505090026 | 48 | 302 | 0.0 | 0.0 | 0.00 | 0.02 | 0.02 | 82 | 1010.0 |
| 20260505085508 | 48 | 302 | 0.0 | 0.0 | 0.00 | 0.02 | 0.02 | 81 | 1010.0 |
| 20260505085009 | 48 | 302 | 0.0 | 0.0 | 0.00 | 0.02 | 0.02 | 81 | 1009.9 |
| 20260505084520 | 48 | 302 | 0.0 | 0.0 | 0.00 | 0.02 | 0.02 | 80 | 1009.9 |
| 20260505084007 | 48 | 302 | 0.0 | 0.0 | 0.00 | 0.02 | 0.02 | 81 | 1009.9 |
| 20260505083510 | 48 | 302 | 0.0 | 0.0 | 0.00 | 0.02 | 0.02 | 82 | 1010.0 |
| 20260505083023 | 48 | 302 | 0.0 | 0.0 | 0.00 | 0.02 | 0.02 | 83 | 1009.9 |
| 20260505082507 | 48 | 302 | 0.0 | 0.0 | 0.00 | 0.02 | 0.02 | 83 | 1009.8 |
| 20260505082007 | 48 | 302 | 0.0 | 0.0 | 0.00 | 0.02 | 0.02 | 83 | 1009.7 |
| 20260505081505 | 48 | 302 | 0.0 | 0.0 | 0.00 | 0.02 | 0.02 | 83 | 1009.6 |
| 20260505081004 | 48 | 302 | 0.0 | 0.0 | 0.00 | 0.02 | 0.02 | 83 | 1009.5 |
| 20260505080504 | 48 | 302 | 0.0 | 0.0 | 0.00 | 0.02 | 0.02 | 83 | 1009.3 |
| 20260505080003 | 48 | 302 | 0.0 | 0.0 | 0.01 | 0.02 | 0.02 | 83 | 1009.3 |
| 20260505075503 | 48 | 302 | 0.0 | 0.0 | 0.01 | 0.02 | 0.02 | 84 | 1009.1 |
| 20260505075002 | 47 | 302 | 0.0 | 0.0 | 0.01 | 0.02 | 0.02 | 85 | 1009.3 |
| 20260505074503 | 47 | 302 | 0.0 | 0.0 | 0.01 | 0.02 | 0.02 | 86 | 1009.3 |
| 20260505074002 | 47 | 302 | 0.0 | 0.0 | 0.01 | 0.02 | 0.02 | 85 | 1009.2 |
| 20260505073505 | 47 | 302 | 0.0 | 0.0 | 0.01 | 0.02 | 0.02 | 85 | 1009.4 |
| 20260505073005 | 47 | 302 | 0.0 | 0.0 | 0.01 | 0.02 | 0.02 | 85 | 1009.4 |
| 20260505072502 | 47 | 302 | 0.0 | 0.0 | 0.01 | 0.02 | 0.02 | 85 | 1009.4 |
| 20260505072002 | 47 | 302 | 0.0 | 0.0 | 0.01 | 0.02 | 0.02 | 87 | 1009.3 |
| 20260505071507 | 47 | 302 | 0.0 | 0.0 | 0.01 | 0.02 | 0.02 | 86 | 1009.2 |
| 20260505071002 | 47 | 302 | 0.0 | 0.0 | 0.02 | 0.02 | 0.02 | 86 | 1009.3 |
| 20260505070506 | 47 | 302 | 0.0 | 0.0 | 0.02 | 0.02 | 0.02 | 86 | 1009.3 |
| 20260505070003 | 47 | 302 | 0.0 | 0.0 | 0.01 | 0.01 | 0.01 | 86 | 1009.5 |
| 20260505065503 | 47 | 302 | 0.0 | 0.0 | 0.01 | 0.01 | 0.01 | 86 | 1009.1 |
| 20260505065003 | 47 | 302 | 0.0 | 0.0 | 0.01 | 0.01 | 0.01 | 86 | 1008.8 |
| 20260505064503 | 47 | 302 | 0.0 | 0.0 | 0.01 | 0.01 | 0.01 | 85 | 1008.9 |
| 20260505064003 | 47 | 302 | 0.0 | 0.0 | 0.01 | 0.01 | 0.01 | 83 | 1009.0 |
| 20260505063503 | 47 | 302 | 0.0 | 0.0 | 0.01 | 0.01 | 0.01 | 83 | 1009.3 |
| 20260505063003 | 47 | 302 | 0.0 | 0.9 | 0.01 | 0.01 | 0.01 | 82 | 1009.2 |
| 20260505062508 | 47 | 302 | 0.0 | 0.9 | 0.01 | 0.01 | 0.01 | 80 | 1009.1 |
| 20260505062001 | 48 | 302 | 0.0 | 1.7 | 0.01 | 0.01 | 0.01 | 75 | 1009.4 |
| 20260505061509 | 49 | 302 | 0.0 | 5.2 | 0.01 | 0.01 | 0.01 | 73 | 1009.9 |
| 20260505061001 | 49 | 302 | 0.9 | 5.2 | 0.00 | 0.00 | 0.00 | 71 | 1010.0 |
| 20260505060506 | 49 | 355 | 0.9 | 2.6 | 0.00 | 0.00 | 0.00 | 71 | 1009.6 |
| 20260505060010 | 48 | 5 | 0.0 | 1.7 | 0.00 | 0.00 | 0.00 | 72 | 1009.1 |
| 20260505055503 | 49 | 324 | 0.0 | 2.6 | 0.00 | 0.00 | 0.00 | 71 | 1009.1 |
| 20260505055003 | 49 | 324 | 0.9 | 2.6 | 0.00 | 0.00 | 0.00 | 71 | 1009.4 |
| 20260505054503 | 49 | 323 | 0.9 | 2.6 | 0.00 | 0.00 | 0.00 | 72 | 1009.5 |
| 20260505054002 | 49 | 323 | 0.0 | 3.5 | 0.00 | 0.00 | 0.00 | 72 | 1009.4 |
| 20260505053505 | 49 | 321 | 0.9 | 3.5 | 0.00 | 0.00 | 0.00 | 71 | 1009.6 |
| 20260505053007 | 49 | 325 | 0.9 | 3.5 | 0.00 | 0.00 | 0.00 | 71 | 1009.4 |
| 20260505052504 | 48 | 355 | 0.9 | 3.5 | 0.00 | 0.00 | 0.00 | 72 | 1009.1 |
| 20260505052006 | 48 | 26 | 0.0 | 1.7 | 0.00 | 0.00 | 0.00 | 72 | 1009.1 |
| 20260505051520 | 48 | 37 | 0.0 | 4.3 | 0.00 | 0.00 | 0.00 | 72 | 1009.0 |
| 20260505051005 | 49 | 37 | 0.9 | 4.3 | 0.00 | 0.00 | 0.00 | 71 | 1009.1 |
| 20260505050511 | 49 | 352 | 0.9 | 7.0 | 0.00 | 0.00 | 0.00 | 71 | 1009.3 |
| 20260505041508 | 54 | 320 | 4.3 | 10.4 | 0.00 | 0.00 | 0.00 | 47 | 1009.9 |
| 20260505041006 | 54 | 338 | 1.7 | 7.0 | 0.00 | 0.00 | 0.00 | 47 | 1009.6 |
| 20260505040506 | 54 | 338 | 1.7 | 7.8 | 0.00 | 0.00 | 0.00 | 46 | 1009.7 |
| 20260505040013 | 54 | 344 | 0.9 | 10.4 | 0.00 | 0.00 | 0.00 | 46 | 1009.5 |
| 20260505035503 | 55 | 333 | 2.6 | 10.4 | 0.00 | 0.00 | 0.00 | 45 | 1009.4 |
| 20260505035005 | 55 | 346 | 3.5 | 8.7 | 0.00 | 0.00 | 0.00 | 46 | 1009.2 |
| 20260505034514 | 54 | 355 | 1.7 | 6.1 | 0.00 | 0.00 | 0.00 | 47 | 1009.1 |
| 20260505034004 | 55 | 11 | 1.7 | 6.1 | 0.00 | 0.00 | 0.00 | 47 | 1009.0 |
| 20260505033504 | 55 | 347 | 2.6 | 13.0 | 0.00 | 0.00 | 0.00 | 46 | 1009.1 |
| 20260505033010 | 55 | 360 | 2.6 | 13.0 | 0.00 | 0.00 | 0.00 | 46 | 1008.7 |
| 20260505032504 | 55 | 300 | 3.5 | 7.8 | 0.00 | 0.00 | 0.00 | 45 | 1008.9 |
| 20260505032007 | 55 | 355 | 3.5 | 10.4 | 0.00 | 0.00 | 0.00 | 45 | 1008.7 |
| 20260505031507 | 55 | 343 | 2.6 | 10.4 | 0.00 | 0.00 | 0.00 | 45 | 1008.9 |
| 20260505031003 | 56 | 313 | 3.5 | 9.6 | 0.00 | 0.00 | 0.00 | 44 | 1009.1 |
| 20260505030503 | 56 | 331 | 2.6 | 9.6 | 0.00 | 0.00 | 0.00 | 45 | 1008.8 |
| 20260505030012 | 56 | 297 | 2.6 | 9.6 | 0.00 | 0.00 | 0.00 | 45 | 1008.5 |
| 20260505025504 | 56 | 292 | 3.5 | 9.6 | 0.00 | 0.00 | 0.00 | 44 | 1008.7 |
| 20260505025004 | 56 | 331 | 3.5 | 9.6 | 0.00 | 0.00 | 0.00 | 45 | 1008.4 |
| 20260505024516 | 56 | 326 | 3.5 | 11.3 | 0.00 | 0.00 | 0.00 | 45 | 1008.7 |
| 20260505024006 | 56 | 309 | 6.1 | 14.8 | 0.00 | 0.00 | 0.00 | 45 | 1008.1 |
| 20260505023505 | 56 | 347 | 3.5 | 14.8 | 0.00 | 0.00 | 0.00 | 45 | 1007.6 |
| 20260505023015 | 56 | 360 | 2.6 | 9.6 | 0.00 | 0.00 | 0.00 | 44 | 1007.7 |
| 20260505022507 | 56 | 340 | 2.6 | 12.2 | 0.00 | 0.00 | 0.00 | 44 | 1007.5 |
| 20260505022004 | 57 | 325 | 3.5 | 13.9 | 0.00 | 0.00 | 0.00 | 44 | 1007.8 |
| 20260505021516 | 57 | 340 | 6.1 | 13.9 | 0.00 | 0.00 | 0.00 | 44 | 1007.6 |
| 20260505021006 | 57 | 311 | 3.5 | 12.2 | 0.00 | 0.00 | 0.00 | 45 | 1007.4 |
| 20260505020506 | 57 | 332 | 4.3 | 10.4 | 0.00 | 0.00 | 0.00 | 44 | 1007.4 |
| 20260505020010 | 57 | 316 | 4.3 | 11.3 | 0.00 | 0.00 | 0.00 | 45 | 1007.4 |
| 20260505015503 | 57 | 348 | 5.2 | 11.3 | 0.00 | 0.00 | 0.00 | 44 | 1007.4 |
| 20260505015003 | 57 | 340 | 4.3 | 11.3 | 0.00 | 0.00 | 0.00 | 44 | 1007.4 |
| 20260505014508 | 58 | 360 | 4.3 | 13.9 | 0.00 | 0.00 | 0.00 | 44 | 1007.2 |
| 20260505014012 | 58 | 5 | 5.2 | 13.9 | 0.00 | 0.00 | 0.00 | 44 | 1006.9 |
| 20260505013507 | 58 | 351 | 3.5 | 12.2 | 0.00 | 0.00 | 0.00 | 43 | 1007.0 |
| 20260505013008 | 59 | 5 | 4.3 | 12.2 | 0.00 | 0.00 | 0.00 | 41 | 1006.7 |
| 20260505012504 | 60 | 339 | 5.2 | 17.4 | 0.00 | 0.00 | 0.00 | 40 | 1006.8 |
| 20260505012009 | 60 | 352 | 4.3 | 17.4 | 0.00 | 0.00 | 0.00 | 40 | 1006.5 |
| 20260505011509 | 60 | 24 | 4.3 | 15.6 | 0.00 | 0.00 | 0.00 | 39 | 1006.5 |
| 20260505011005 | 61 | 360 | 4.3 | 19.1 | 0.00 | 0.00 | 0.00 | 39 | 1006.5 |
| 20260505010508 | 61 | 319 | 6.1 | 19.1 | 0.00 | 0.00 | 0.00 | 39 | 1006.4 |
| 20260505010018 | 62 | 5 | 5.2 | 12.2 | 0.00 | 0.00 | 0.00 | 39 | 1006.5 |
| 20260505005507 | 62 | 333 | 5.2 | 13.0 | 0.00 | 0.00 | 0.00 | 37 | 1006.4 |
| 20260505005007 | 63 | 331 | 2.6 | 13.0 | 0.00 | 0.00 | 0.00 | 37 | 1006.1 |
| 20260505004518 | 63 | 355 | 4.3 | 13.0 | 0.00 | 0.00 | 0.00 | 37 | 1006.0 |
| 20260505004002 | 64 | 31 | 2.6 | 14.8 | 0.00 | 0.00 | 0.00 | 36 | 1006.0 |
| 20260505003507 | 64 | 336 | 5.2 | 14.8 | 0.00 | 0.00 | 0.00 | 35 | 1005.9 |
| 20260505003021 | 64 | 360 | 3.5 | 12.2 | 0.00 | 0.00 | 0.00 | 35 | 1005.8 |
| 20260505002506 | 65 | 317 | 3.5 | 12.2 | 0.00 | 0.00 | 0.00 | 35 | 1005.7 |
| 20260505002007 | 66 | 360 | 4.3 | 13.0 | 0.00 | 0.00 | 0.00 | 36 | 1005.5 |
| 20260505001514 | 67 | 333 | 3.5 | 13.0 | 0.00 | 0.00 | 0.00 | 35 | 1005.4 |
| 20260505001006 | 67 | 312 | 3.5 | 10.4 | 0.00 | 0.00 | 0.00 | 35 | 1005.3 |
| 20260505000505 | 67 | 349 | 3.5 | 12.2 | 0.00 | 0.00 | 0.00 | 36 | 1005.3 |
| 20260505000019 | 68 | 305 | 4.3 | 13.0 | 0.00 | 0.00 | 0.00 | 35 | 1005.3 |
| 20260504235508 | 68 | 337 | 3.5 | 13.0 | 0.00 | 0.00 | 0.00 | 35 | 1005.3 |
| 20260504235012 | 68 | 346 | 5.2 | 12.2 | 0.00 | 0.00 | 0.00 | 34 | 1005.2 |
| 20260504234520 | 68 | 5 | 3.5 | 9.6 | 0.00 | 0.00 | 0.00 | 34 | 1005.2 |
| 20260504234006 | 69 | 348 | 3.5 | 8.7 | 0.00 | 0.00 | 0.00 | 34 | 1005.2 |
| 20260504233506 | 69 | 346 | 3.5 | 8.7 | 0.00 | 0.00 | 0.00 | 33 | 1005.2 |
| 20260504233014 | 69 | 352 | 3.5 | 8.7 | 0.00 | 0.00 | 0.00 | 35 | 1005.0 |
| 20260504232506 | 70 | 318 | 2.6 | 9.6 | 0.00 | 0.00 | 0.00 | 33 | 1004.8 |
| 20260504232006 | 70 | 343 | 3.5 | 14.8 | 0.00 | 0.00 | 0.00 | 33 | 1004.7 |
| 20260504231518 | 71 | 325 | 5.2 | 14.8 | 0.00 | 0.00 | 0.00 | 32 | 1004.5 |
| 20260504231008 | 72 | 322 | 5.2 | 14.8 | 0.00 | 0.00 | 0.00 | 31 | 1004.5 |